When you browse on this site, cookies collect data to enhance your experience and personalize the content and advertising you see.
Visit our Privacy Policy to learn more. By continuing to use the site, you agree to this use of cookies and data.
  • In United Kingdom
  • List of Countries
  • For 7 days
  • Water Temperature
  • Satellite Maps
  • Weather Map
  • Weather Widgets
  • user-avatar
    Login

    Hourly Weather Dundee

    Today, 25 April, Thursday

    Time Temperature Precipitation Wind Pressure Humidity
    00:00 +7°C° 0 mm 4 mps 735 mmHg 95%
    01:00 +8°C° 0.4 mm 3 mps 735 mmHg 96%
    02:00 +8°C° 0.4 mm 2 mps 735 mmHg 97%
    03:00 +8°C° 0.4 mm 2 mps 735 mmHg 97%
    04:00 +8°C° 0.2 mm 2 mps 736 mmHg 96%
    05:00 +8°C° 0.2 mm 2 mps 736 mmHg 94%
    06:00 +8°C° 0.2 mm 2 mps 737 mmHg 93%
    07:00 +9°C° 0 mm 3 mps 737 mmHg 87%
    08:00 +10°C° 0 mm 3 mps 737 mmHg 80%
    09:00 +11°C° 0 mm 3 mps 737 mmHg 74%
    10:00 +11°C° 0 mm 4 mps 738 mmHg 72%
    11:00 +12°C° 0 mm 5 mps 738 mmHg 71%
    12:00 +11°C° 0 mm 6 mps 738 mmHg 69%
    13:00 +10°C° 1.1 mm 6 mps 738 mmHg 78%
    14:00 +8°C° 1.1 mm 5 mps 738 mmHg 86%
    15:00 +7°C° 1.1 mm 4 mps 738 mmHg 94%
    16:00 +7°C° 0.7 mm 4 mps 738 mmHg 94%
    17:00 +7°C° 0.7 mm 4 mps 738 mmHg 94%
    18:00 +7°C° 0.7 mm 4 mps 738 mmHg 93%
    19:00 +7°C° 0.5 mm 4 mps 738 mmHg 95%
    20:00 +8°C° 0.5 mm 3 mps 739 mmHg 96%
    21:00 +8°C° 0.5 mm 3 mps 739 mmHg 97%
    22:00 +8°C° 0.9 mm 3 mps 739 mmHg 96%
    23:00 +8°C° 0.9 mm 3 mps 739 mmHg 95%

    Tomorrow, 26 April, Friday

    Time Temperature Precipitation Wind Pressure Humidity
    00:00 +8°C° 0.9 mm 3 mps 740 mmHg 94%
    01:00 +7°C° 0 mm 3 mps 740 mmHg 94%
    02:00 +5°C° 0 mm 3 mps 740 mmHg 93%
    03:00 +5°C° 0 mm 4 mps 740 mmHg 93%
    04:00 +5°C° 0 mm 4 mps 740 mmHg 93%
    05:00 +5°C° 0 mm 4 mps 740 mmHg 92%
    06:00 +5°C° 0 mm 5 mps 740 mmHg 92%
    07:00 +6°C° 0.6 mm 5 mps 740 mmHg 91%
    08:00 +7°C° 0.6 mm 5 mps 740 mmHg 89%
    09:00 +7°C° 0.6 mm 5 mps 740 mmHg 88%
    10:00 +9°C° 0.1 mm 5 mps 740 mmHg 82%
    11:00 +10°C° 0.1 mm 5 mps 740 mmHg 77%
    12:00 +12°C° 0.1 mm 5 mps 740 mmHg 71%
    13:00 +10°C° 0.7 mm 6 mps 740 mmHg 76%
    14:00 +9°C° 0.7 mm 6 mps 739 mmHg 81%
    15:00 +9°C° 0.7 mm 6 mps 739 mmHg 86%
    16:00 +9°C° 0.3 mm 6 mps 739 mmHg 86%
    17:00 +9°C° 0.3 mm 6 mps 739 mmHg 87%
    18:00 +9°C° 0.3 mm 5 mps 739 mmHg 87%
    19:00 +8°C° 0.1 mm 5 mps 739 mmHg 88%
    20:00 +7°C° 0.1 mm 5 mps 740 mmHg 89%
    21:00 +6°C° 0.1 mm 4 mps 740 mmHg 89%
    22:00 +6°C° 0.1 mm 4 mps 740 mmHg 90%
    23:00 +5°C° 0.1 mm 3 mps 740 mmHg 91%

    Day after tomorrow, 27 April, Saturday

    Time Temperature Precipitation Wind Pressure Humidity
    00:00 +5°C° 0.1 mm 3 mps 740 mmHg 92%
    01:00 +5°C° 0.3 mm 3 mps 740 mmHg 93%
    02:00 +6°C° 0.3 mm 2 mps 740 mmHg 94%
    03:00 +6°C° 0.3 mm 2 mps 740 mmHg 95%
    04:00 +6°C° 0.2 mm 2 mps 741 mmHg 94%
    05:00 +6°C° 0.2 mm 2 mps 741 mmHg 94%
    06:00 +6°C° 0.2 mm 2 mps 741 mmHg 94%
    07:00 +7°C° 0.1 mm 2 mps 742 mmHg 89%
    08:00 +8°C° 0.1 mm 2 mps 743 mmHg 84%
    09:00 +9°C° 0.1 mm 2 mps 743 mmHg 78%
    10:00 +11°C° 0.1 mm 1 mps 744 mmHg 75%
    11:00 +12°C° 0.1 mm 1 mps 745 mmHg 72%
    12:00 +12°C° 0.1 mm 1 mps 746 mmHg 69%
    13:00 +12°C° 0.2 mm 1 mps 746 mmHg 71%
    14:00 +12°C° 0.2 mm 2 mps 747 mmHg 74%
    15:00 +12°C° 0.2 mm 2 mps 748 mmHg 76%
    16:00 +10°C° 0.1 mm 3 mps 748 mmHg 75%
    17:00 +10°C° 0.1 mm 4 mps 749 mmHg 75%
    18:00 +8°C° 0.1 mm 5 mps 750 mmHg 74%
    19:00 +8°C° 0 mm 5 mps 751 mmHg 75%
    20:00 +7°C° 0 mm 4 mps 751 mmHg 75%
    21:00 +6°C° 0 mm 4 mps 752 mmHg 76%
    22:00 +5°C° 0 mm 4 mps 753 mmHg 77%
    23:00 +4°C° 0 mm 4 mps 753 mmHg 79%

    28 April, Sunday

    Time Temperature Precipitation Wind Pressure Humidity
    00:00 +4°C° 0 mm 4 mps 754 mmHg 80%
    01:00 +3°C° 0 mm 4 mps 754 mmHg 82%
    02:00 +2°C° 0 mm 3 mps 754 mmHg 83%
    03:00 +2°C° 0 mm 3 mps 755 mmHg 84%
    04:00 +2°C° 0 mm 3 mps 755 mmHg 84%
    05:00 +3°C° 0 mm 2 mps 756 mmHg 83%
    06:00 +4°C° 0 mm 2 mps 756 mmHg 83%
    07:00 +5°C° 0 mm 2 mps 757 mmHg 76%
    08:00 +7°C° 0 mm 2 mps 757 mmHg 69%
    09:00 +8°C° 0 mm 2 mps 757 mmHg 62%
    10:00 +9°C° 0 mm 2 mps 757 mmHg 59%
    11:00 +10°C° 0 mm 2 mps 757 mmHg 56%
    12:00 +12°C° 0 mm 2 mps 757 mmHg 54%
    13:00 +12°C° 0 mm 2 mps 757 mmHg 56%
    14:00 +11°C° 0 mm 3 mps 757 mmHg 58%
    15:00 +12°C° 0 mm 3 mps 757 mmHg 60%
    16:00 +11°C° 0 mm 3 mps 757 mmHg 65%
    17:00 +10°C° 0 mm 3 mps 758 mmHg 69%
    18:00 +10°C° 0 mm 3 mps 758 mmHg 73%
    19:00 +8°C° 0 mm 3 mps 758 mmHg 78%
    20:00 +7°C° 0 mm 2 mps 758 mmHg 83%
    21:00 +6°C° 0 mm 2 mps 758 mmHg 87%
    22:00 +5°C° 0 mm 2 mps 758 mmHg 88%
    23:00 +5°C° 0 mm 2 mps 759 mmHg 89%

    29 April, Monday

    Time Temperature Precipitation Wind Pressure Humidity
    00:00 +5°C° 0 mm 2 mps 759 mmHg 90%
    01:00 +6°C° 0 mm 1 mps 759 mmHg 90%
    02:00 +6°C° 0 mm 1 mps 759 mmHg 90%
    03:00 +6°C° 0 mm 1 mps 758 mmHg 91%
    04:00 +6°C° 0 mm 1 mps 759 mmHg 90%
    05:00 +6°C° 0 mm 1 mps 759 mmHg 90%
    06:00 +5°C° 0 mm 2 mps 759 mmHg 90%
    07:00 +7°C° 0 mm 2 mps 759 mmHg 83%
    08:00 +8°C° 0 mm 2 mps 759 mmHg 76%
    09:00 +10°C° 0 mm 3 mps 759 mmHg 69%
    10:00 +11°C° 0 mm 3 mps 759 mmHg 69%
    11:00 +11°C° 0 mm 4 mps 759 mmHg 68%
    12:00 +12°C° 0 mm 5 mps 759 mmHg 67%
    13:00 +12°C° 0 mm 5 mps 759 mmHg 69%
    14:00 +12°C° 0 mm 5 mps 759 mmHg 71%
    15:00 +12°C° 0 mm 5 mps 759 mmHg 72%
    16:00 +10°C° 0 mm 5 mps 759 mmHg 75%
    17:00 +10°C° 0 mm 5 mps 759 mmHg 78%
    18:00 +9°C° 0 mm 5 mps 759 mmHg 80%
    19:00 +8°C° 0 mm 4 mps 759 mmHg 83%
    20:00 +8°C° 0 mm 3 mps 760 mmHg 87%
    21:00 +6°C° 0 mm 2 mps 760 mmHg 90%
    22:00 +6°C° 0 mm 2 mps 760 mmHg 91%
    23:00 +6°C° 0 mm 2 mps 760 mmHg 91%

    30 April, Tuesday

    Time Temperature Precipitation Wind Pressure Humidity
    00:00 +5°C° 0 mm 2 mps 760 mmHg 91%
    01:00 +5°C° 0 mm 2 mps 760 mmHg 91%
    02:00 +5°C° 0 mm 2 mps 760 mmHg 91%
    03:00 +5°C° 0 mm 2 mps 760 mmHg 91%
    04:00 +5°C° 0 mm 2 mps 760 mmHg 89%
    05:00 +6°C° 0 mm 2 mps 760 mmHg 87%
    06:00 +6°C° 0 mm 2 mps 759 mmHg 85%
    07:00 +7°C° 0 mm 2 mps 759 mmHg 82%
    08:00 +9°C° 0 mm 3 mps 759 mmHg 79%
    09:00 +10°C° 0 mm 3 mps 759 mmHg 76%
    10:00 +10°C° 0 mm 3 mps 759 mmHg 77%
    11:00 +10°C° 0 mm 4 mps 759 mmHg 78%
    12:00 +10°C° 0 mm 4 mps 759 mmHg 79%
    13:00 +10°C° 0 mm 4 mps 759 mmHg 72%
    14:00 +11°C° 0 mm 4 mps 759 mmHg 65%
    15:00 +11°C° 0 mm 4 mps 758 mmHg 59%
    16:00 +10°C° 0 mm 4 mps 758 mmHg 62%
    17:00 +8°C° 0 mm 4 mps 758 mmHg 65%
    18:00 +8°C° 0 mm 3 mps 758 mmHg 68%
    19:00 +7°C° 0 mm 3 mps 758 mmHg 75%
    20:00 +6°C° 0 mm 2 mps 759 mmHg 81%
    21:00 +6°C° 0 mm 1 mps 759 mmHg 88%
    22:00 +5°C° 0 mm 1 mps 759 mmHg 88%
    23:00 +5°C° 0 mm 1 mps 759 mmHg 88%
    Show more